period_start,C,m1,H,J0,J1,J2,J3,J4,J5,JA,JB,JC,JD,JJ,JK,JN,#
2013-12-05 00:00:13,0.16,0.87,0.00,26.58,27.50,30.38,5.89,30.50,1020.61,2042.00,3162.68,3072.80,3337.97,348.93,320.86,6.62,0000 0000 0000 0000 000000
2013-12-05 00:01:13,0.20,0.87,0.00,26.55,27.50,30.37,5.84,30.54,1020.69,2042.00,3162.23,3072.32,3337.44,349.79,321.21,6.62,0000 0000 0000 0000 000000
2013-12-05 00:02:14,0.24,0.87,0.00,26.50,27.50,30.38,5.73,30.46,1020.72,2042.01,3161.64,3072.07,3337.13,349.81,321.13,6.63,0000 0000 0000 0000 000000
2013-12-05 00:03:14,0.17,0.87,0.00,26.52,27.50,30.42,5.86,30.67,1020.77,2042.00,3161.14,3071.52,3336.57,349.50,321.00,6.64,0000 0000 0000 0000 000000
2013-12-05 00:04:14,0.28,0.87,0.00,26.53,27.50,30.42,5.87,30.50,1020.70,2042.01,3160.54,3071.19,3336.21,349.78,321.24,6.64,0000 0000 0000 0000 000000
2013-12-05 00:05:15,0.22,0.87,0.00,26.52,27.50,30.36,5.94,30.54,1020.67,2042.00,3160.05,3070.94,3335.76,350.94,322.36,6.65,0000 0000 0000 0000 000000
2013-12-05 00:06:15,0.17,0.88,0.00,26.56,27.50,30.37,5.87,30.25,1020.60,2042.00,3159.44,3070.40,3335.28,349.69,321.09,6.65,0000 0000 0000 0000 000000
2013-12-05 00:07:15,0.29,0.88,0.00,26.59,27.50,30.40,5.84,30.33,1020.60,2042.00,3158.91,3070.14,3334.98,350.08,321.41,6.66,0000 0000 0000 0000 000000
2013-12-05 00:08:15,0.18,0.88,0.00,26.53,27.50,30.37,5.84,30.33,1020.61,2042.00,3158.34,3069.69,3334.43,349.57,321.01,6.66,0000 0000 0000 0000 000000
2013-12-05 00:09:15,0.27,0.88,0.00,26.49,27.50,30.38,5.90,30.42,1020.67,2042.00,3157.78,3069.25,3334.11,350.64,322.06,6.67,0000 0000 0000 0000 000000
2013-12-05 00:10:16,0.21,0.88,0.00,26.42,27.50,30.40,5.84,30.58,1020.62,2042.00,3157.24,3068.90,3333.58,349.63,321.19,6.68,0000 0000 0000 0000 000000
2013-12-05 00:11:16,0.22,0.88,0.00,26.40,27.50,30.42,5.84,30.63,1020.60,2042.00,3156.58,3068.39,3333.22,349.27,320.87,6.68,0000 0000 0000 0000 000000
2013-12-05 00:12:16,0.27,0.88,0.00,26.38,27.50,30.38,5.78,30.58,1020.63,2042.00,3156.09,3068.13,3332.81,348.95,320.62,6.69,0000 0000 0000 0000 000000
2013-12-05 00:13:17,0.19,0.88,0.00,26.42,27.50,30.36,5.88,30.58,1020.57,2042.00,3155.47,3067.73,3332.31,349.81,321.34,6.69,0000 0000 0000 0000 000000
2013-12-05 00:14:17,0.26,0.89,0.00,26.41,27.50,30.34,5.82,30.54,1020.56,2042.00,3154.90,3067.25,3331.96,349.47,321.03,6.70,0000 0000 0000 0000 000000
2013-12-05 00:15:17,0.23,0.89,0.00,26.40,27.50,30.36,5.81,30.42,1020.65,2042.00,3154.33,3067.01,3331.40,349.77,321.35,6.71,0000 0000 0000 0000 000000
2013-12-05 00:16:17,0.22,0.89,0.00,26.37,27.50,30.36,5.87,30.54,1020.64,2042.00,3153.75,3066.49,3331.08,350.25,321.44,6.71,0000 0000 0000 0000 000000
2013-12-05 00:17:17,0.26,0.89,0.00,26.41,27.50,30.35,6.00,30.67,1020.60,2042.00,3153.22,3066.13,3330.52,350.78,322.26,6.72,0000 0000 0000 0000 000000
2013-12-05 00:18:18,0.24,0.89,0.00,26.46,27.50,30.37,5.85,30.42,1020.58,2042.00,3152.60,3065.58,3330.15,349.55,321.07,6.72,0000 0000 0000 0000 000000
2013-12-05 00:19:18,0.27,0.89,0.00,26.46,27.50,30.36,5.91,30.63,1020.61,2042.00,3152.03,3065.20,3329.64,350.36,321.82,6.73,0000 0000 0000 0000 000000
2013-12-05 00:20:18,0.24,0.90,0.00,26.42,27.50,30.35,5.80,30.63,1020.60,2042.00,3151.40,3064.73,3329.24,349.89,321.42,6.73,0000 0000 0000 0000 000000
2013-12-05 00:21:18,0.27,0.90,0.00,26.43,27.50,30.35,5.93,30.75,1020.62,2042.00,3150.72,3064.27,3328.83,350.28,321.78,6.74,0000 0000 0000 0000 000000
2013-12-05 00:22:18,0.25,0.90,0.00,26.39,27.50,30.34,5.95,30.67,1020.63,2042.00,3150.20,3064.03,3328.32,350.55,322.07,6.75,0000 0000 0000 0000 000000
2013-12-05 00:23:18,0.20,0.90,0.00,26.43,27.50,30.36,6.02,30.42,1020.63,2042.00,3149.54,3063.52,3327.99,350.71,322.18,6.75,0000 0000 0000 0000 000000
2013-12-05 00:24:19,0.27,0.90,0.00,26.40,27.50,30.37,5.99,30.75,1020.74,2042.00,3149.00,3063.17,3327.43,350.33,321.79,6.76,0000 0000 0000 0000 000000
2013-12-05 00:25:19,0.23,0.90,0.00,26.33,27.50,30.35,5.83,30.63,1020.80,2042.00,3148.39,3062.76,3327.14,349.52,320.82,6.76,0000 0000 0000 0000 000000
2013-12-05 00:26:19,0.23,0.90,0.00,26.31,27.50,30.33,5.87,30.54,1020.82,2042.00,3147.83,3062.28,3326.74,350.97,323.02,6.77,0000 0000 0000 0000 000000
2013-12-05 00:27:19,0.24,0.91,0.00,26.30,27.50,30.32,6.04,30.33,1020.81,2042.00,3147.26,3061.94,3326.27,349.98,321.70,6.78,0000 0000 0000 0000 000000
2013-12-05 00:28:19,0.22,0.91,0.00,26.29,27.50,30.32,5.94,30.50,1020.80,2042.00,3146.63,3061.40,3325.96,349.60,321.16,6.78,0000 0000 0000 0000 000000
2013-12-05 00:29:20,0.26,0.91,0.00,26.27,27.50,30.32,5.94,30.38,1020.80,2042.00,3146.10,3061.14,3325.41,350.25,321.98,6.79,0000 0000 0000 0000 000000
2013-12-05 00:30:20,0.21,0.91,0.00,26.38,27.50,30.34,5.91,30.58,1020.75,2042.00,3145.47,3060.70,3325.06,349.74,321.19,6.79,0000 0000 0000 0000 000000
2013-12-05 00:31:20,0.24,0.91,0.00,26.42,27.50,30.34,6.01,30.75,1020.76,2042.01,3144.99,3060.26,3324.53,351.20,322.69,6.80,0000 0000 0000 0000 000000
2013-12-05 00:32:21,0.25,0.91,0.00,26.37,27.50,30.37,5.99,30.75,1020.76,2042.01,3144.38,3060.00,3324.19,350.23,321.84,6.81,0000 0000 0000 0000 000000
2013-12-05 00:33:21,0.19,0.91,0.00,26.37,27.50,30.33,5.83,30.54,1020.75,2042.00,3143.69,3059.43,3323.80,349.33,321.00,6.81,0000 0000 0000 0000 000000
2013-12-05 00:34:21,0.28,0.92,0.00,26.32,27.50,30.33,5.87,30.67,1020.72,2042.01,3143.25,3059.15,3323.31,349.54,321.25,6.82,0000 0000 0000 0000 000000
2013-12-05 00:35:21,0.20,0.92,0.00,26.28,27.50,30.34,5.98,30.58,1020.65,2042.00,3142.67,3058.78,3323.04,350.97,322.59,6.82,0000 0000 0000 0000 000000
2013-12-05 00:36:22,0.19,0.92,0.00,26.31,27.50,30.34,5.83,30.54,1020.61,2042.00,3142.21,3058.30,3322.53,350.08,321.72,6.83,0000 0000 0000 0000 000000
2013-12-05 00:37:22,0.25,0.92,0.00,26.34,27.50,30.36,6.10,30.50,1020.61,2042.00,3141.61,3058.10,3322.19,349.44,321.10,6.83,0000 0000 0000 0000 000000
2013-12-05 00:38:22,0.17,0.92,0.00,26.29,27.50,30.34,5.93,30.71,1020.73,2042.00,3141.20,3057.87,3322.00,350.12,321.57,6.84,0000 0000 0000 0000 000000
2013-12-05 00:39:22,0.15,0.92,0.00,26.29,27.50,30.32,5.88,30.88,1020.81,2042.00,3140.69,3057.36,3321.50,349.38,321.16,6.85,0000 0000 0000 0000 000000
2013-12-05 00:40:23,0.26,0.92,0.00,26.32,27.50,30.31,6.02,30.75,1020.72,2042.00,3140.23,3057.09,3321.18,349.57,321.24,6.85,0000 0000 0000 0000 000000
2013-12-05 00:41:23,0.16,0.92,0.00,26.40,27.50,30.33,6.02,30.79,1020.62,2042.00,3139.64,3056.73,3320.93,349.45,321.05,6.86,0000 0000 0000 0000 000000
2013-12-05 00:42:23,0.19,0.92,0.00,26.38,27.50,30.34,5.85,30.92,1020.56,2042.00,3139.22,3056.29,3320.39,349.56,321.15,6.86,0000 0000 0000 0000 000000
2013-12-05 00:43:23,0.24,0.93,0.00,26.39,27.50,30.33,5.98,30.58,1020.57,2042.00,3138.68,3056.10,3320.12,351.04,322.60,6.87,0000 0000 0000 0000 000000
2013-12-05 00:44:24,0.17,0.93,0.00,26.44,27.50,30.33,5.91,30.75,1020.58,2042.00,3138.24,3055.72,3319.72,349.57,321.37,6.88,0000 0000 0000 0000 000000
2013-12-05 00:45:24,0.20,0.93,0.00,26.43,27.50,30.30,5.98,30.75,1020.54,2042.00,3137.87,3055.28,3319.27,351.06,322.76,6.88,0000 0000 0000 0000 000000
2013-12-05 00:46:24,0.22,0.93,0.00,26.44,27.50,30.31,5.96,30.63,1020.55,2042.00,3137.35,3055.09,3319.10,350.08,321.57,6.89,0000 0000 0000 0000 000000
2013-12-05 00:47:24,0.14,0.93,0.00,26.43,27.50,30.30,5.84,30.75,1020.56,2042.00,3137.06,3054.92,3318.87,350.16,321.75,6.89,0000 0000 0000 0000 000000
2013-12-05 00:48:25,0.12,0.93,0.00,26.45,27.50,30.34,5.89,30.54,1020.56,2042.01,3136.52,3054.52,3318.37,350.62,322.05,6.90,0000 0000 0000 0000 000000
2013-12-05 00:49:25,0.22,0.93,0.00,26.45,27.50,30.35,5.94,30.71,1020.55,2042.00,3136.18,3054.20,3318.13,350.55,322.40,6.90,0000 0000 0000 0000 000000
2013-12-05 00:50:25,0.13,0.93,0.00,26.40,27.49,30.31,5.88,30.67,1020.55,2042.00,3135.80,3054.06,3318.03,350.51,321.57,6.91,0000 0000 0000 0000 000000
2013-12-05 00:51:26,0.12,0.93,0.00,26.42,27.49,30.33,5.89,30.54,1020.58,2042.00,3135.30,3053.74,3317.58,349.44,321.12,6.92,0000 0000 0000 0000 000000
2013-12-05 00:52:26,0.19,0.94,0.00,26.40,27.49,30.31,5.89,30.46,1020.55,2042.00,3135.08,3053.30,3317.21,349.56,321.12,6.92,0000 0000 0000 0000 000000
2013-12-05 00:53:26,0.19,0.94,0.00,26.36,27.49,30.31,6.02,30.50,1020.56,2042.00,3134.65,3053.11,3317.03,351.57,323.02,6.93,0000 0000 0000 0000 000000
2013-12-05 00:54:26,0.12,0.94,0.00,26.33,27.49,30.31,5.71,30.46,1020.61,2042.00,3134.24,3052.96,3316.67,348.88,320.59,6.93,0000 0000 0000 0000 000000
2013-12-05 00:55:27,0.16,0.94,0.00,26.30,27.48,30.36,5.97,30.58,1020.69,2042.00,3133.87,3052.50,3316.27,350.93,321.94,6.94,0000 0000 0000 0000 000000
2013-12-05 00:56:27,0.21,0.94,0.00,26.27,27.48,30.29,5.92,30.75,1020.68,2042.00,3133.38,3052.21,3316.10,350.01,321.72,6.95,0000 0000 0000 0000 000000
2013-12-05 00:57:27,0.15,0.94,0.00,26.20,27.48,30.29,5.97,30.50,1020.65,2042.00,3133.12,3052.06,3315.91,350.48,322.21,6.95,0000 0000 0000 0000 000000
2013-12-05 00:58:27,0.12,0.94,0.00,26.22,27.48,30.27,6.01,30.83,1020.63,2042.00,3132.61,3051.86,3315.40,349.86,321.56,6.96,0000 0000 0000 0000 000000
2013-12-05 00:59:28,0.19,0.94,0.00,26.27,27.47,30.25,6.10,31.29,1020.66,2042.00,3132.22,3051.39,3315.14,350.84,322.25,6.96,0000 0000 0000 0000 000000
2013-12-05 01:00:28,0.19,0.94,0.00,26.34,27.47,30.29,5.87,30.63,1020.64,2042.00,3131.85,3051.14,3315.00,350.08,321.69,6.97,0000 0000 0000 0000 000000
2013-12-05 01:01:28,0.13,0.94,0.00,26.38,27.47,30.30,6.05,30.75,1020.63,2042.00,3131.38,3051.02,3314.58,350.68,322.20,6.97,0000 0000 0000 0000 000000
2013-12-05 01:02:28,0.15,0.94,0.00,26.40,27.47,30.30,5.93,30.54,1020.61,2042.00,3131.11,3050.67,3314.22,350.53,322.03,6.98,0000 0000 0000 0000 000000
2013-12-05 01:03:29,0.17,0.95,0.00,26.45,27.47,30.30,5.97,30.58,1020.62,2042.00,3130.62,3050.26,3314.07,350.54,321.95,6.99,0000 0000 0000 0000 000000
2013-12-05 01:04:29,0.17,0.95,0.00,26.47,27.47,30.30,5.75,30.33,1020.66,2042.00,3130.23,3050.09,3313.75,349.35,321.11,6.99,0000 0000 0000 0000 000000
2013-12-05 01:05:29,0.13,0.95,0.00,26.47,27.47,30.29,5.77,30.67,1020.64,2042.01,3130.04,3050.02,3313.32,349.65,321.16,7.00,0000 0000 0000 0000 000000
2013-12-05 01:06:30,0.12,0.95,0.00,26.49,27.47,30.31,5.96,30.63,1020.60,2042.00,3129.51,3049.70,3313.11,349.82,321.00,7.00,0000 0000 0000 0000 000000
2013-12-05 01:07:30,0.17,0.95,0.00,26.50,27.47,30.30,5.94,30.58,1020.61,2042.00,3129.18,3049.28,3313.03,349.44,321.26,7.01,0000 0000 0000 0000 000000
2013-12-05 01:08:30,0.16,0.95,0.00,26.54,27.47,30.33,6.13,30.67,1020.60,2042.01,3128.88,3049.09,3312.79,351.28,322.13,7.02,0000 0000 0000 0000 000000
2013-12-05 01:09:31,0.13,0.95,0.00,26.54,27.47,30.30,5.98,30.71,1020.57,2042.00,3128.38,3048.99,3312.35,350.35,321.47,7.02,0000 0000 0000 0000 000000
2013-12-05 01:10:31,0.16,0.95,0.00,26.54,27.47,30.31,5.94,30.50,1020.57,2042.00,3128.12,3048.58,3312.12,350.44,321.79,7.03,0000 0000 0000 0000 000000
2013-12-05 01:11:31,0.15,0.95,0.00,26.49,27.47,30.29,5.99,30.46,1020.57,2042.00,3127.68,3048.21,3312.01,350.66,322.04,7.03,0000 0000 0000 0000 000000
2013-12-05 01:12:32,0.16,0.95,0.00,26.42,27.47,30.29,5.93,30.75,1020.62,2042.00,3127.25,3048.07,3311.58,350.23,321.91,7.04,0000 0000 0000 0000 000000
2013-12-05 01:13:32,0.14,0.95,0.00,26.44,27.47,30.30,5.97,30.54,1020.64,2042.00,3126.96,3047.98,3311.22,350.74,322.20,7.05,0000 0000 0000 0000 000000
2013-12-05 01:14:32,0.12,0.96,0.00,26.44,27.47,30.31,5.92,30.67,1020.66,2042.00,3126.44,3047.63,3311.08,349.86,321.40,7.05,0000 0000 0000 0000 000000
2013-12-05 01:15:33,0.17,0.96,0.00,26.45,27.47,30.33,5.74,30.67,1020.68,2042.01,3126.16,3047.25,3310.90,348.58,320.33,7.06,0000 0000 0000 0000 000000
2013-12-05 01:16:33,0.16,0.96,0.00,26.43,27.47,30.29,5.87,30.71,1020.68,2042.00,3125.84,3047.09,3310.41,349.87,321.41,7.06,0000 0000 0000 0000 000000
2013-12-05 01:17:33,0.13,0.96,0.00,26.44,27.47,30.28,5.93,30.79,1020.74,2042.00,3125.35,3047.01,3310.15,349.60,321.18,7.07,0000 0000 0000 0000 000000
2013-12-05 01:18:33,0.12,0.96,0.00,26.44,27.47,30.30,5.84,30.58,1020.78,2042.01,3125.12,3046.80,3310.05,349.35,320.96,7.07,0000 0000 0000 0000 000000
2013-12-05 01:19:34,0.10,0.96,0.00,26.43,27.47,30.29,5.85,30.88,1020.88,2042.00,3124.81,3046.39,3309.89,349.31,321.27,7.08,0000 0000 0000 0000 000000
2013-12-05 01:20:34,0.17,0.96,0.00,26.45,27.47,30.31,5.98,30.58,1020.95,2042.01,3124.32,3046.14,3309.41,350.46,322.02,7.09,0000 0000 0000 0000 000000
2013-12-05 01:21:34,0.18,0.96,0.00,26.45,27.47,30.30,5.86,30.67,1020.97,2042.00,3124.10,3046.04,3309.16,349.65,321.29,7.09,0000 0000 0000 0000 000000
2013-12-05 01:22:35,0.09,0.96,0.00,26.41,27.47,30.31,5.99,30.63,1020.94,2042.00,3123.73,3045.84,3309.05,350.11,321.76,7.10,0000 0000 0000 0000 000000
2013-12-05 01:23:35,0.11,0.96,0.00,26.43,27.46,30.31,5.94,30.79,1020.90,2042.01,3123.29,3045.44,3308.94,350.71,322.46,7.10,0000 0000 0000 0000 000000
2013-12-05 01:24:35,0.17,0.96,0.00,26.39,27.46,30.30,5.99,30.54,1020.94,2042.01,3123.09,3045.17,3308.50,350.08,321.53,7.11,0000 0000 0000 0000 000000
2013-12-05 01:25:35,0.15,0.97,0.00,26.33,27.45,30.30,5.86,30.54,1020.94,2042.01,3122.71,3045.05,3308.18,350.66,322.33,7.12,0000 0000 0000 0000 000000
2013-12-05 01:26:36,0.12,0.97,0.00,26.30,27.45,30.33,5.86,30.46,1020.91,2042.01,3122.26,3044.96,3308.06,350.12,322.00,7.12,0000 0000 0000 0000 000000
2013-12-05 01:27:36,0.11,0.97,0.00,26.27,27.45,30.28,5.97,30.83,1020.89,2042.00,3122.08,3044.55,3307.84,351.56,323.20,7.13,0000 0000 0000 0000 000000
2013-12-05 01:28:36,0.14,0.97,0.00,26.25,27.45,30.27,5.85,30.88,1020.82,2042.00,3121.77,3044.20,3307.39,348.95,320.81,7.13,0000 0000 0000 0000 000000
2013-12-05 01:29:37,0.18,0.97,0.00,26.27,27.45,30.27,5.84,30.50,1020.85,2042.01,3121.31,3044.07,3307.14,350.12,322.12,7.14,0000 0000 0000 0000 000000
2013-12-05 01:30:37,0.12,0.97,0.00,26.25,27.45,30.30,5.93,30.38,1020.86,2042.00,3121.11,3044.02,3307.04,350.50,322.24,7.15,0000 0000 0000 0000 000000
2013-12-05 01:31:37,0.05,0.97,0.00,26.27,27.45,30.29,5.84,30.54,1020.80,2042.00,3121.02,3043.91,3306.97,349.92,321.67,7.15,0000 0000 0000 0000 000000
2013-12-05 01:32:37,0.08,0.97,0.00,26.33,27.45,30.30,5.85,30.54,1020.77,2042.00,3120.59,3043.54,3306.62,348.55,320.34,7.16,0000 0000 0000 0000 000000
2013-12-05 01:33:37,0.19,0.97,0.00,26.41,27.45,30.28,5.93,30.63,1020.78,2042.02,3120.22,3043.21,3306.22,349.58,321.55,7.16,0000 0000 0000 0000 000000
2013-12-05 01:34:38,0.17,0.97,0.00,26.45,27.45,30.30,5.90,30.50,1020.70,2042.01,3120.05,3043.07,3306.08,350.17,321.68,7.17,0000 0000 0000 0000 000000
2013-12-05 01:35:38,0.07,0.97,0.00,26.46,27.45,30.30,5.92,30.58,1020.73,2042.00,3119.60,3043.01,3306.00,350.00,321.52,7.17,0000 0000 0000 0000 000000
2013-12-05 01:36:38,0.09,0.97,0.00,26.49,27.45,30.29,5.91,30.79,1020.73,2042.01,3119.22,3042.84,3305.73,349.85,321.35,7.18,0000 0000 0000 0000 000000
2013-12-05 01:37:38,0.16,0.97,0.00,26.52,27.45,30.27,5.92,30.33,1020.82,2042.00,3119.02,3042.38,3305.30,350.45,321.89,7.19,0000 0000 0000 0000 000000
2013-12-05 01:38:39,0.18,0.98,0.00,26.61,27.45,30.31,5.88,30.58,1020.92,2042.00,3118.56,3042.14,3305.10,350.10,321.36,7.19,0000 0000 0000 0000 000000
2013-12-05 01:39:39,0.13,0.98,0.00,26.60,27.45,30.30,5.86,30.46,1020.97,2042.00,3118.21,3042.04,3305.03,350.02,321.23,7.20,0000 0000 0000 0000 000000
2013-12-05 01:40:39,0.07,0.98,0.00,26.55,27.45,30.30,5.79,30.58,1020.99,2042.03,3118.02,3041.94,3304.86,349.19,320.47,7.20,0000 0000 0000 0000 000000
2013-12-05 01:41:39,0.13,0.98,0.00,26.49,27.45,30.30,5.96,30.38,1021.01,2042.02,3117.55,3041.56,3304.37,350.35,321.90,7.21,0000 0000 0000 0000 000000
2013-12-05 01:42:40,0.21,0.98,0.00,26.44,27.45,30.32,5.84,30.58,1021.01,2042.01,3117.19,3041.21,3304.13,348.85,320.57,7.22,0000 0000 0000 0000 000000
2013-12-05 01:43:40,0.14,0.98,0.00,26.41,27.45,30.29,5.92,30.42,1021.01,2042.00,3116.77,3041.05,3303.93,350.61,321.98,7.22,0000 0000 0000 0000 000000
2013-12-05 01:44:40,0.14,0.98,0.00,26.48,27.45,30.30,5.87,30.42,1021.01,2042.01,3116.29,3040.73,3303.44,349.70,321.11,7.23,0000 0000 0000 0000 000000
2013-12-05 01:45:40,0.21,0.98,0.00,26.50,27.45,30.29,5.91,30.29,1021.01,2042.02,3116.08,3040.28,3303.15,349.96,321.40,7.23,0000 0000 0000 0000 000000
2013-12-05 01:46:41,0.18,0.98,0.00,26.49,27.45,30.28,5.83,30.17,1021.01,2042.00,3115.67,3040.10,3303.00,349.50,321.11,7.24,0000 0000 0000 0000 000000
2013-12-05 01:47:41,0.12,0.98,0.00,26.44,27.45,30.31,5.79,30.04,1021.01,2042.02,3115.24,3040.03,3302.56,349.57,321.24,7.24,0000 0000 0000 0000 000000
2013-12-05 01:48:41,0.13,0.98,0.00,26.42,27.45,30.31,5.98,30.21,1021.01,2042.00,3114.94,3039.73,3302.19,351.20,322.86,7.25,0000 0000 0000 0000 000000
2013-12-05 01:49:42,0.18,0.98,0.00,26.38,27.45,30.27,5.84,30.50,1021.00,2042.01,3114.38,3039.28,3302.02,349.31,321.06,7.26,0000 0000 0000 0000 000000
2013-12-05 01:50:42,0.19,0.99,0.00,26.31,27.45,30.28,5.97,30.29,1021.01,2042.00,3114.12,3039.10,3301.55,350.32,322.06,7.26,0000 0000 0000 0000 000000
2013-12-05 01:51:42,0.15,0.99,0.00,26.21,27.45,30.27,6.02,30.63,1021.01,2042.00,3113.62,3038.90,3301.21,349.81,322.19,7.27,0000 0000 0000 0000 000000
2013-12-05 01:52:43,0.17,0.99,0.00,26.20,27.45,30.27,5.95,30.67,1021.01,2042.00,3113.23,3038.46,3301.07,350.23,321.88,7.27,0000 0000 0000 0000 000000
2013-12-05 01:53:43,0.17,0.99,0.00,26.18,27.45,30.28,5.91,30.46,1021.01,2042.00,3113.04,3038.17,3300.87,349.90,321.83,7.28,0000 0000 0000 0000 000000
2013-12-05 01:54:43,0.15,0.99,0.00,26.12,27.45,30.27,6.03,30.54,1021.00,2042.00,3112.55,3038.05,3300.37,350.99,322.88,7.29,0000 0000 0000 0000 000000
2013-12-05 01:55:43,0.14,0.99,0.00,26.17,27.45,30.25,5.96,30.50,1021.00,2042.00,3112.17,3037.78,3300.12,351.51,323.31,7.29,0000 0000 0000 0000 000000
2013-12-05 01:56:44,0.17,0.99,0.00,26.26,27.45,30.25,5.92,30.42,1021.00,2042.01,3111.67,3037.30,3300.02,350.99,322.74,7.30,0000 0000 0000 0000 000000
2013-12-05 01:57:44,0.19,0.99,0.00,26.36,27.45,30.25,5.82,30.42,1020.99,2042.01,3111.24,3037.11,3299.65,348.84,320.65,7.30,0000 0000 0000 0000 000000
2013-12-05 01:58:44,0.16,0.99,0.00,26.37,27.45,30.25,5.92,30.33,1021.01,2042.01,3110.79,3036.96,3299.25,350.16,321.85,7.31,0000 0000 0000 0000 000000
2013-12-05 01:59:45,0.17,1.00,0.00,26.39,27.45,30.23,6.03,30.63,1021.01,2042.00,3110.29,3036.49,3299.09,350.47,322.12,7.31,0000 0000 0000 0000 000000
2013-12-05 02:00:45,0.18,1.00,0.00,26.38,27.45,30.25,5.96,30.54,1021.01,2042.00,3110.08,3036.20,3298.97,350.95,322.56,7.32,0000 0000 0000 0000 000000
2013-12-05 02:01:45,0.12,1.00,0.00,26.39,27.45,30.24,5.98,30.46,1021.01,2042.00,3109.74,3036.07,3298.55,349.54,321.29,7.33,0000 0000 0000 0000 000000
2013-12-05 02:02:45,0.14,1.00,0.00,26.32,27.45,30.26,5.87,30.46,1021.01,2042.00,3109.28,3035.95,3298.20,349.62,321.69,7.33,0000 0000 0000 0000 000000
2013-12-05 02:03:46,0.15,1.00,0.00,26.31,27.45,30.27,6.01,30.58,1021.01,2042.00,3109.02,3035.53,3298.04,350.61,321.72,7.34,0000 0000 0000 0000 000000
2013-12-05 02:04:46,0.16,1.00,0.00,26.30,27.45,30.25,5.91,30.42,1021.01,2042.00,3108.50,3035.20,3297.68,351.27,322.94,7.34,0000 0000 0000 0000 000000
2013-12-05 02:05:46,0.18,1.00,0.00,26.26,27.45,30.28,5.92,30.58,1021.01,2042.00,3108.16,3035.07,3297.28,350.08,321.90,7.35,0000 0000 0000 0000 000000
2013-12-05 02:06:46,0.13,1.00,0.00,26.26,27.44,30.23,5.89,30.54,1021.01,2042.00,3107.87,3034.94,3297.10,350.65,322.42,7.36,0000 0000 0000 0000 000000
2013-12-05 02:07:47,0.15,1.00,0.00,26.33,27.44,30.22,5.93,30.54,1021.01,2042.01,3107.34,3034.48,3296.99,350.30,322.03,7.36,0000 0000 0000 0000 000000
2013-12-05 02:08:47,0.18,1.00,0.00,26.25,27.44,30.23,5.98,30.42,1021.02,2042.01,3107.12,3034.19,3296.60,350.96,322.71,7.37,0000 0000 0000 0000 000000
2013-12-05 02:09:47,0.16,1.00,0.00,26.12,27.44,30.23,6.02,30.33,1021.01,2042.02,3106.76,3034.07,3296.24,351.17,323.05,7.37,0000 0000 0000 0000 000000
2013-12-05 02:10:47,0.13,1.01,0.00,26.19,27.44,30.24,5.88,30.58,1021.01,2042.01,3106.29,3033.97,3296.08,349.22,321.19,7.38,0000 0000 0000 0000 000000
2013-12-05 02:11:48,0.09,1.01,0.00,26.18,27.43,30.24,5.97,30.88,1021.01,2042.02,3106.08,3033.73,3296.02,350.36,322.24,7.39,0000 0000 0000 0000 000000
2013-12-05 02:12:48,0.11,1.01,0.00,26.16,27.43,30.27,5.94,30.54,1021.01,2042.03,3105.79,3033.36,3295.97,350.60,322.48,7.39,0000 0000 0000 0000 000000
2013-12-05 02:13:48,0.17,1.01,0.00,26.13,27.43,30.27,5.93,30.50,1021.01,2042.04,3105.34,3033.14,3295.70,350.71,322.62,7.40,0000 0000 0000 0000 000000
2013-12-05 02:14:48,0.14,1.01,0.00,26.15,27.43,30.28,5.88,30.75,1021.01,2042.02,3105.12,3033.05,3295.27,349.08,321.26,7.40,0000 0000 0000 0000 000000
2013-12-05 02:15:49,0.08,1.01,0.00,26.28,27.42,30.25,5.82,30.29,1021.01,2042.02,3104.85,3032.94,3295.10,349.64,321.48,7.41,0000 0000 0000 0000 000000
2013-12-05 02:16:49,0.13,1.01,0.00,26.34,27.42,30.24,5.85,30.58,1021.01,2042.05,3104.34,3032.61,3294.93,349.14,321.39,7.41,0000 0000 0000 0000 000000
2013-12-05 02:17:50,0.18,1.01,0.00,26.40,27.42,30.25,5.98,30.42,1021.01,2042.05,3104.10,3032.26,3294.50,350.33,321.98,7.42,0000 0000 0000 0000 000000
2013-12-05 02:18:50,0.16,1.01,0.00,26.33,27.42,30.25,6.02,30.71,1021.01,2042.03,3103.71,3032.10,3294.19,350.91,322.58,7.43,0000 0000 0000 0000 000000
2013-12-05 02:19:50,0.13,1.01,0.00,26.25,27.42,30.25,5.96,30.42,1021.01,2042.03,3103.27,3032.03,3294.06,350.53,322.31,7.43,0000 0000 0000 0000 000000
2013-12-05 02:20:50,0.08,1.01,0.00,26.22,27.42,30.28,5.88,30.63,1021.00,2042.03,3103.09,3031.87,3293.96,349.57,321.16,7.44,0000 0000 0000 0000 000000
2013-12-05 02:21:51,0.11,1.01,0.00,26.27,27.42,30.27,5.93,30.50,1021.01,2042.03,3102.79,3031.39,3293.56,349.55,321.64,7.44,0000 0000 0000 0000 000000
2013-12-05 02:22:51,0.21,1.02,0.00,26.28,27.42,30.22,5.86,30.75,1021.01,2042.02,3102.30,3031.13,3293.22,350.24,322.02,7.45,0000 0000 0000 0000 000000
2013-12-05 02:23:51,0.14,1.02,0.00,26.35,27.42,30.21,5.86,30.63,1021.01,2042.02,3102.10,3031.05,3293.08,349.39,321.17,7.46,0000 0000 0000 0000 000000
2013-12-05 02:24:51,0.05,1.02,0.00,26.41,27.42,30.23,5.98,31.04,1021.01,2042.00,3101.64,3030.91,3293.00,350.67,322.29,7.46,0000 0000 0000 0000 000000
2013-12-05 02:25:52,0.13,1.02,0.00,26.41,27.42,30.26,5.85,30.71,1021.01,2042.03,3101.23,3030.44,3292.59,348.60,320.38,7.47,0000 0000 0000 0000 000000
2013-12-05 02:26:52,0.22,1.02,0.00,26.43,27.42,30.26,5.91,30.46,1021.01,2042.02,3100.98,3030.16,3292.22,351.07,322.62,7.47,0000 0000 0000 0000 000000
2013-12-05 02:27:52,0.16,1.02,0.00,26.41,27.42,30.26,5.79,30.58,1021.01,2042.02,3100.45,3030.05,3292.07,349.54,321.24,7.48,0000 0000 0000 0000 000000
2013-12-05 02:28:52,0.11,1.02,0.00,26.38,27.42,30.23,5.90,30.54,1021.01,2042.01,3100.15,3029.90,3291.91,348.92,320.70,7.48,0000 0000 0000 0000 000000
2013-12-05 02:29:53,0.13,1.02,0.00,26.36,27.42,30.26,5.88,30.63,1021.01,2042.03,3099.78,3029.45,3291.43,349.69,321.43,7.49,0000 0000 0000 0000 000000
2013-12-05 02:30:53,0.22,1.02,0.00,26.32,27.42,30.25,5.97,30.38,1021.01,2042.03,3099.31,3029.16,3291.15,351.07,322.60,7.50,0000 0000 0000 0000 000000
2013-12-05 02:31:53,0.15,1.02,0.00,26.31,27.42,30.24,5.76,30.42,1021.01,2042.02,3099.04,3029.05,3291.03,349.03,321.14,7.50,0000 0000 0000 0000 000000
2013-12-05 02:32:54,0.08,1.02,0.00,26.32,27.42,30.23,5.84,30.58,1021.01,2042.05,3098.53,3028.84,3290.69,350.02,321.53,7.51,0000 0000 0000 0000 000000
2013-12-05 02:33:54,0.22,1.03,0.00,26.30,27.42,30.24,6.06,30.75,1020.99,2042.05,3098.16,3028.37,3290.27,350.62,322.35,7.51,0000 0000 0000 0000 000000
2013-12-05 02:34:54,0.20,1.03,0.00,26.25,27.42,30.23,5.94,30.50,1021.01,2042.02,3097.67,3028.13,3290.08,350.25,322.06,7.52,0000 0000 0000 0000 000000
2013-12-05 02:35:55,0.14,1.03,0.00,26.21,27.42,30.22,5.84,30.71,1021.01,2042.03,3097.24,3027.99,3289.79,349.53,320.98,7.53,0000 0000 0000 0000 000000
2013-12-05 02:36:55,0.15,1.03,0.00,26.20,27.42,30.28,5.87,30.71,1021.00,2042.03,3096.80,3027.54,3289.33,350.19,322.07,7.53,0000 0000 0000 0000 000000